When you browse on this site, cookies collect data to enhance your experience and personalize the content and advertising you see.
Visit our Privacy Policy to learn more. By continuing to use the site, you agree to this use of cookies and data.
  • In Hungary
  • List of Countries
  • For 7 days
  • Water Temperature
  • Satellite Maps
  • Weather Map
  • News
  • Weather Widgets
  • user-avatar
    Login

    Hourly Weather Vyselok Ilinskoe

    Today, 16 December, Sunday

    Time Temperature Precipitation Wind Pressure Humidity
    00:00 -6°C° 0 mm 1 mps 757 mmHg 94%
    01:00 -6°C° 0 mm 1 mps 757 mmHg 95%
    02:00 -7°C° 0 mm 1 mps 757 mmHg 95%
    03:00 -6°C° 0 mm 1 mps 757 mmHg 94%
    04:00 -6°C° 0 mm 1 mps 757 mmHg 94%
    05:00 -6°C° 0 mm 1 mps 757 mmHg 94%
    06:00 -4°C° 0 mm 1 mps 757 mmHg 94%
    07:00 -4°C° 0 mm 1 mps 757 mmHg 94%
    08:00 -6°C° 0 mm 2 mps 757 mmHg 94%
    09:00 -6°C° 0 mm 2 mps 757 mmHg 92%
    10:00 -5°C° 0 mm 2 mps 757 mmHg 91%
    11:00 -5°C° 0 mm 2 mps 758 mmHg 90%
    12:00 -5°C° 0 mm 2 mps 757 mmHg 90%
    13:00 -5°C° 0 mm 2 mps 757 mmHg 91%
    14:00 -8°C° 0 mm 2 mps 757 mmHg 89%
    15:00 -8°C° 0 mm 2 mps 757 mmHg 89%
    16:00 -9°C° 0 mm 2 mps 757 mmHg 89%
    17:00 -9°C° 0 mm 2 mps 757 mmHg 89%
    18:00 -10°C° 0 mm 2 mps 757 mmHg 85%
    19:00 -10°C° 0 mm 2 mps 757 mmHg 82%
    20:00 -10°C° 0 mm 2 mps 756 mmHg 78%
    21:00 -12°C° 0 mm 3 mps 756 mmHg 78%
    22:00 -12°C° 0 mm 3 mps 756 mmHg 78%
    23:00 -13°C° 0 mm 3 mps 756 mmHg 78%

    Tomorrow, 17 December, Monday

    Time Temperature Precipitation Wind Pressure Humidity
    00:00 -13°C° 0 mm 3 mps 756 mmHg 80%
    01:00 -13°C° 0 mm 3 mps 756 mmHg 83%
    02:00 -13°C° 0 mm 3 mps 756 mmHg 86%
    03:00 -13°C° 0 mm 3 mps 756 mmHg 87%
    04:00 -14°C° 0 mm 3 mps 755 mmHg 88%
    05:00 -14°C° 0 mm 3 mps 755 mmHg 89%
    06:00 -14°C° 0 mm 3 mps 755 mmHg 89%
    07:00 -14°C° 0 mm 3 mps 755 mmHg 88%
    08:00 -14°C° 0 mm 3 mps 755 mmHg 87%
    09:00 -13°C° 0 mm 3 mps 755 mmHg 85%
    10:00 -13°C° 0 mm 3 mps 755 mmHg 83%
    11:00 -12°C° 0 mm 3 mps 755 mmHg 81%
    12:00 -12°C° 0 mm 3 mps 754 mmHg 82%
    13:00 -12°C° 0 mm 3 mps 754 mmHg 82%
    14:00 -12°C° 0 mm 3 mps 754 mmHg 82%
    15:00 -12°C° 0 mm 3 mps 754 mmHg 84%
    16:00 -13°C° 0 mm 3 mps 754 mmHg 86%
    17:00 -13°C° 0 mm 3 mps 754 mmHg 88%
    18:00 -13°C° 0 mm 3 mps 754 mmHg 88%
    19:00 -14°C° 0 mm 3 mps 754 mmHg 87%
    20:00 -13°C° 0 mm 2 mps 754 mmHg 87%
    21:00 -13°C° 0 mm 2 mps 754 mmHg 87%
    22:00 -13°C° 0 mm 2 mps 754 mmHg 87%
    23:00 -13°C° 0 mm 2 mps 754 mmHg 86%

    Day after tomorrow, 18 December, Tuesday

    Time Temperature Precipitation Wind Pressure Humidity
    00:00 -13°C° 0 mm 2 mps 754 mmHg 86%
    01:00 -14°C° 0 mm 2 mps 755 mmHg 86%
    02:00 -14°C° 0 mm 2 mps 755 mmHg 85%
    03:00 -14°C° 0 mm 2 mps 754 mmHg 86%
    04:00 -14°C° 0 mm 2 mps 754 mmHg 86%
    05:00 -14°C° 0 mm 2 mps 754 mmHg 87%
    06:00 -16°C° 0 mm 3 mps 754 mmHg 87%
    07:00 -16°C° 0 mm 3 mps 754 mmHg 88%
    08:00 -16°C° 0 mm 3 mps 754 mmHg 88%
    09:00 -15°C° 0 mm 3 mps 754 mmHg 87%
    10:00 -15°C° 0 mm 3 mps 754 mmHg 86%
    11:00 -15°C° 0 mm 3 mps 754 mmHg 85%
    12:00 -14°C° 0 mm 3 mps 754 mmHg 85%
    13:00 -13°C° 0 mm 2 mps 754 mmHg 85%
    14:00 -13°C° 0 mm 2 mps 754 mmHg 85%
    15:00 -13°C° 0 mm 2 mps 754 mmHg 87%
    16:00 -14°C° 0 mm 2 mps 754 mmHg 90%
    17:00 -14°C° 0 mm 2 mps 754 mmHg 92%
    18:00 -14°C° 0 mm 2 mps 754 mmHg 92%
    19:00 -14°C° 0 mm 2 mps 754 mmHg 92%
    20:00 -14°C° 0 mm 2 mps 754 mmHg 92%
    21:00 -14°C° 0 mm 2 mps 754 mmHg 92%
    22:00 -14°C° 0 mm 2 mps 754 mmHg 92%
    23:00 -13°C° 0 mm 2 mps 754 mmHg 91%

    19 December, Wednesday

    Time Temperature Precipitation Wind Pressure Humidity
    00:00 -13°C° 0 mm 2 mps 754 mmHg 91%
    01:00 -13°C° 0 mm 2 mps 755 mmHg 91%
    02:00 -13°C° 0 mm 2 mps 755 mmHg 91%
    03:00 -13°C° 0 mm 2 mps 755 mmHg 91%
    04:00 -13°C° 0 mm 2 mps 755 mmHg 91%
    05:00 -13°C° 0 mm 2 mps 755 mmHg 91%
    06:00 -13°C° 0 mm 2 mps 755 mmHg 92%
    07:00 -13°C° 0 mm 2 mps 755 mmHg 92%
    08:00 -13°C° 0 mm 2 mps 755 mmHg 92%
    09:00 -13°C° 0 mm 2 mps 755 mmHg 90%
    10:00 -12°C° 0 mm 2 mps 755 mmHg 89%
    11:00 -12°C° 0 mm 2 mps 755 mmHg 87%
    12:00 -10°C° 0 mm 2 mps 755 mmHg 87%
    13:00 -10°C° 0 mm 2 mps 755 mmHg 86%
    14:00 -10°C° 0 mm 2 mps 755 mmHg 86%
    15:00 -10°C° 0 mm 2 mps 755 mmHg 88%
    16:00 -12°C° 0 mm 2 mps 755 mmHg 90%
    17:00 -10°C° 0 mm 1 mps 755 mmHg 92%
    18:00 -10°C° 0 mm 1 mps 755 mmHg 92%
    19:00 -10°C° 0 mm 1 mps 755 mmHg 92%
    20:00 -10°C° 0 mm 1 mps 755 mmHg 91%
    21:00 -10°C° 0 mm 1 mps 755 mmHg 92%
    22:00 -10°C° 0 mm 1 mps 755 mmHg 93%
    23:00 -11°C° 0 mm 1 mps 755 mmHg 95%

    20 December, Thursday

    Time Temperature Precipitation Wind Pressure Humidity
    00:00 -11°C° 0 mm 1 mps 755 mmHg 94%
    01:00 -10°C° 0 mm 1 mps 756 mmHg 93%
    02:00 -10°C° 0 mm 1 mps 756 mmHg 91%
    03:00 -11°C° 0 mm 1 mps 756 mmHg 92%
    04:00 -11°C° 0 mm 1 mps 755 mmHg 93%
    05:00 -11°C° 0 mm 1 mps 755 mmHg 93%
    06:00 -11°C° 0 mm 1 mps 755 mmHg 93%
    07:00 -11°C° 0 mm 1 mps 755 mmHg 93%
    08:00 -11°C° 0 mm 1 mps 756 mmHg 93%
    09:00 -11°C° 0 mm 1 mps 756 mmHg 91%
    10:00 -10°C° 0 mm 1 mps 756 mmHg 88%
    11:00 -12°C° 0 mm 2 mps 756 mmHg 86%
    12:00 -10°C° 0 mm 1 mps 756 mmHg 86%
    13:00 -10°C° 0 mm 1 mps 755 mmHg 85%
    14:00 -10°C° 0 mm 1 mps 755 mmHg 85%
    15:00 -10°C° 0 mm 1 mps 755 mmHg 88%
    16:00 -11°C° 0 mm 1 mps 755 mmHg 91%
    17:00 -11°C° 0 mm 1 mps 755 mmHg 94%
    18:00 -11°C° 0 mm 1 mps 755 mmHg 95%
    19:00 -12°C° 0 mm 1 mps 755 mmHg 95%
    20:00 -12°C° 0 mm 1 mps 755 mmHg 96%
    21:00 -12°C° 0 mm 1 mps 755 mmHg 96%
    22:00 -12°C° 0 mm 1 mps 755 mmHg 96%
    23:00 -12°C° 0 mm 1 mps 755 mmHg 96%

    21 December, Friday

    Time Temperature Precipitation Wind Pressure Humidity
    00:00 -12°C° 0 mm 1 mps 755 mmHg 96%
    01:00 -12°C° 0 mm 1 mps 754 mmHg 96%
    02:00 -12°C° 0 mm 1 mps 754 mmHg 96%
    03:00 -12°C° 0 mm 1 mps 754 mmHg 96%
    04:00 -12°C° 0 mm 1 mps 754 mmHg 96%
    05:00 -14°C° 0 mm 2 mps 754 mmHg 96%
    06:00 -14°C° 0 mm 2 mps 753 mmHg 95%
    07:00 -14°C° 0 mm 2 mps 753 mmHg 95%
    08:00 -14°C° 0 mm 2 mps 753 mmHg 95%
    09:00 -14°C° 0 mm 2 mps 753 mmHg 93%
    10:00 -14°C° 0 mm 2 mps 753 mmHg 92%
    11:00 -13°C° 0 mm 2 mps 753 mmHg 90%
    12:00 -13°C° 0 mm 2 mps 753 mmHg 90%
    13:00 -13°C° 0 mm 2 mps 753 mmHg 90%
    14:00 -13°C° 0 mm 2 mps 752 mmHg 90%
    15:00 -13°C° 0 mm 2 mps 752 mmHg 91%
    16:00 -14°C° 0 mm 2 mps 752 mmHg 93%
    17:00 -14°C° 0 mm 2 mps 752 mmHg 95%
    18:00 -14°C° 0 mm 2 mps 752 mmHg 95%
    19:00 -14°C° 0 mm 2 mps 752 mmHg 95%
    20:00 -14°C° 0 mm 2 mps 752 mmHg 95%
    21:00 -14°C° 0 mm 2 mps 752 mmHg 94%
    22:00 -14°C° 0 mm 2 mps 752 mmHg 94%
    23:00 -14°C° 0 mm 2 mps 752 mmHg 94%
    Show more